ZHONGXING-1E

Last updated on Tue Sep 16 2025 00:02:50 GMT+0000 (Coordinated Universal Time)

1 53813U 22112A 25258.60069602 -.00000165 00000+0 00000+0 0 9990 2 53813 0.0364 315.6270 0003392 297.9396 38.8579 1.00269308 11091
UTC large
Height (km)
Speed (km/s)
/
Latitude / Longitude
Inclination (degrees)
Orbital Period (minutes)
Azimuth
Elevation
Range (km)
Doppler Factor

Next 0 passes for location: London (51.5072 / 0.1276)

Sorry there are no passes over London.